| time (UTC) | temp F | wind direction | speed MPH | gust MPH | rain 1hr in | rain 24hr in | rain mn in | humidity % | barometer mb |
| 20260508101406 | 62 | 355 | 13.0 | 23.0 | 0.01 | 1.96 | 1.03 | 82 | 999.8 |
| 20260508100907 | 62 | 350 | 14.0 | 26.0 | 0.01 | 1.98 | 1.03 | 83 | 999.8 |
| 20260508100406 | 62 | 344 | 13.0 | 24.0 | 0.01 | 1.99 | 1.03 | 84 | 999.8 |
| 20260508095406 | 62 | 346 | 10.0 | 24.0 | 0.01 | 2.01 | 1.03 | 85 | 999.7 |
| 20260508094906 | 62 | 347 | 11.0 | 21.0 | 0.01 | 2.03 | 1.03 | 85 | 999.7 |
| 20260508094406 | 62 | 349 | 12.0 | 37.0 | 0.01 | 2.04 | 1.03 | 86 | 999.8 |
| 20260508093906 | 62 | 357 | 13.0 | 22.0 | 0.00 | 2.05 | 1.02 | 87 | 999.7 |
| 20260508093406 | 62 | 357 | 11.0 | 23.0 | 0.00 | 2.06 | 1.02 | 87 | 999.7 |
| 20260508092906 | 62 | 342 | 10.0 | 21.0 | 0.00 | 2.07 | 1.02 | 87 | 999.7 |
| 20260508092406 | 61 | 350 | 14.0 | 25.0 | 0.00 | 2.08 | 1.02 | 87 | 999.7 |
| 20260508091906 | 61 | 338 | 13.0 | 26.0 | 0.00 | 2.08 | 1.02 | 86 | 999.5 |
| 20260508091406 | 61 | 345 | 12.0 | 22.0 | 0.00 | 2.09 | 1.02 | 85 | 999.5 |
| 20260508090907 | 61 | 351 | 16.0 | 29.0 | 0.00 | 2.09 | 1.02 | 87 | 999.7 |
| 20260508090407 | 61 | 344 | 12.0 | 26.0 | 0.00 | 2.10 | 1.02 | 87 | 999.6 |
| 20260508085906 | 62 | 345 | 16.0 | 28.0 | 0.00 | 2.10 | 1.02 | 88 | 999.6 |
| 20260508085406 | 62 | 357 | 8.0 | 20.0 | 0.00 | 2.11 | 1.02 | 88 | 999.3 |
| 20260508084906 | 62 | 0 | 14.0 | 32.0 | 0.00 | 2.13 | 1.02 | 88 | 999.4 |
| 20260508084407 | 62 | 356 | 16.0 | 31.0 | 0.00 | 2.14 | 1.02 | 88 | 999.4 |
| 20260508083406 | 61 | 20 | 17.0 | 24.0 | 0.00 | 2.16 | 1.02 | 88 | 999.7 |
| 20260508082906 | 61 | 16 | 11.0 | 26.0 | 0.00 | 2.16 | 1.02 | 88 | 999.6 |
| 20260508081906 | 61 | 11 | 13.0 | 24.0 | 0.00 | 2.17 | 1.02 | 88 | 999.9 |
| 20260508080906 | 61 | 15 | 14.0 | 26.0 | 0.00 | 2.18 | 1.02 | 89 | 999.9 |
| 20260508080406 | 61 | 12 | 14.0 | 26.0 | 0.00 | 2.19 | 1.02 | 89 | 1000.0 |
| 20260508075906 | 61 | 17 | 12.0 | 21.0 | 0.00 | 2.20 | 1.02 | 89 | 1000.2 |
| 20260508074907 | 61 | 9 | 9.0 | 18.0 | 0.00 | 2.22 | 1.02 | 89 | 1000.4 |
| 20260508074406 | 61 | 9 | 7.0 | 18.0 | 0.00 | 2.22 | 1.02 | 89 | 1000.5 |
| 20260508073906 | 61 | 3 | 10.0 | 21.0 | 0.00 | 2.23 | 1.02 | 89 | 1000.5 |
| 20260508073406 | 61 | 354 | 9.0 | 21.0 | 0.00 | 2.24 | 1.02 | 89 | 1000.7 |
| 20260508072908 | 61 | 348 | 9.0 | 20.0 | 0.00 | 2.24 | 1.02 | 89 | 1000.7 |
| 20260508072408 | 61 | 351 | 9.0 | 21.0 | 0.00 | 2.24 | 1.02 | 89 | 1000.7 |
| 20260508071906 | 61 | 10 | 13.0 | 25.0 | 0.00 | 2.24 | 1.02 | 89 | 1000.7 |
| 20260508065906 | 60 | 348 | 9.0 | 25.0 | 0.00 | 2.25 | 1.02 | 90 | 1000.8 |
| 20260508065407 | 60 | 342 | 9.0 | 20.0 | 0.00 | 2.25 | 1.02 | 90 | 1000.8 |
| 20260508064908 | 60 | 345 | 9.0 | 20.0 | 0.00 | 2.25 | 1.02 | 90 | 1000.7 |
| 20260508064407 | 60 | 347 | 10.0 | 18.0 | 0.01 | 2.25 | 1.02 | 90 | 1000.7 |
| 20260508063406 | 59 | 356 | 9.0 | 20.0 | 0.03 | 2.27 | 1.02 | 90 | 1000.5 |
| 20260508062906 | 60 | 346 | 13.0 | 26.0 | 0.03 | 2.28 | 1.02 | 90 | 1000.6 |
| 20260508062406 | 59 | 349 | 7.0 | 18.0 | 0.05 | 2.28 | 1.02 | 90 | 1000.7 |
| 20260508061906 | 59 | 345 | 9.0 | 20.0 | 0.06 | 2.28 | 1.02 | 90 | 1000.7 |
| 20260508061406 | 59 | 355 | 9.0 | 20.0 | 0.07 | 2.30 | 1.02 | 90 | 1000.8 |
| 20260508060907 | 59 | 351 | 7.0 | 15.0 | 0.09 | 2.31 | 1.02 | 90 | 1000.7 |
| 20260508060407 | 59 | 358 | 10.0 | 21.0 | 0.12 | 2.32 | 1.02 | 90 | 1000.7 |
| 20260508055907 | 59 | 356 | 9.0 | 17.0 | 0.13 | 2.34 | 1.02 | 90 | 1000.7 |
| 20260508055406 | 60 | 32 | 10.0 | 26.0 | 0.13 | 2.36 | 1.02 | 90 | 1000.7 |
| 20260508054907 | 60 | 13 | 14.0 | 25.0 | 0.16 | 2.38 | 1.02 | 90 | 1000.6 |
| 20260508053907 | 61 | 353 | 12.0 | 24.0 | 0.16 | 2.39 | 1.01 | 90 | 1000.7 |
| 20260508053406 | 62 | 2 | 12.0 | 25.0 | 0.14 | 2.39 | 0.99 | 91 | 1000.6 |
| 20260508052906 | 62 | 350 | 9.0 | 28.0 | 0.15 | 2.40 | 0.99 | 91 | 1000.7 |
| 20260508052407 | 62 | 14 | 22.0 | 39.0 | 0.14 | 2.39 | 0.98 | 91 | 1000.8 |
| 20260508051907 | 62 | 11 | 16.0 | 28.0 | 0.13 | 2.42 | 0.97 | 91 | 1000.6 |
| 20260508051406 | 62 | 1 | 17.0 | 38.0 | 0.13 | 2.41 | 0.95 | 91 | 1000.7 |
| 20260508050406 | 63 | 13 | 25.0 | 39.0 | 0.08 | 2.36 | 0.91 | 91 | 1000.6 |
| 20260508045906 | 62 | 7 | 20.0 | 37.0 | 0.06 | 2.35 | 0.89 | 90 | 1000.1 |
| 20260508045406 | 62 | 13 | 20.0 | 39.0 | 0.06 | 2.35 | 0.89 | 90 | 1000.8 |
| 20260508044907 | 62 | 15 | 20.0 | 38.0 | 0.05 | 2.33 | 0.87 | 90 | 1000.8 |
| 20260508044406 | 62 | 359 | 26.0 | 41.0 | 0.04 | 2.32 | 0.86 | 90 | 1000.5 |
| 20260508043907 | 63 | 6 | 16.0 | 37.0 | 0.03 | 2.31 | 0.85 | 90 | 1000.6 |
| 20260508043407 | 63 | 12 | 21.0 | 40.0 | 0.04 | 2.31 | 0.85 | 90 | 1000.7 |
| 20260508042406 | 62 | 18 | 20.0 | 43.0 | 0.03 | 2.30 | 0.83 | 90 | 1000.7 |
| 20260508041906 | 62 | 17 | 24.0 | 39.0 | 0.03 | 2.31 | 0.83 | 90 | 1000.8 |
| 20260508040906 | 62 | 15 | 20.0 | 33.0 | 0.03 | 2.30 | 0.83 | 90 | 1001.1 |
| 20260508035906 | 62 | 8 | 19.0 | 38.0 | 0.04 | 2.30 | 0.83 | 90 | 1001.4 |
| 20260508035406 | 62 | 8 | 25.0 | 41.0 | 0.04 | 2.30 | 0.83 | 90 | 1001.5 |
| 20260508034406 | 62 | 28 | 17.0 | 35.0 | 0.06 | 2.29 | 0.82 | 90 | 1001.5 |
| 20260508033906 | 62 | 16 | 21.0 | 35.0 | 0.08 | 2.29 | 0.82 | 90 | 1001.6 |
| 20260508032907 | 62 | 12 | 14.0 | 35.0 | 0.09 | 2.28 | 0.80 | 90 | 1002.0 |
| 20260508032406 | 62 | 13 | 21.0 | 36.0 | 0.09 | 2.28 | 0.80 | 90 | 1002.2 |
| 20260508031907 | 62 | 16 | 19.0 | 35.0 | 0.10 | 2.28 | 0.80 | 90 | 1002.5 |
| 20260508031406 | 62 | 4 | 17.0 | 26.0 | 0.10 | 2.27 | 0.80 | 90 | 1002.7 |
| 20260508030906 | 62 | 32 | 19.0 | 39.0 | 0.10 | 2.27 | 0.80 | 90 | 1002.9 |
| 20260508030406 | 62 | 11 | 21.0 | 35.0 | 0.10 | 2.27 | 0.80 | 90 | 1002.9 |
| 20260508025906 | 62 | 5 | 14.0 | 30.0 | 0.09 | 2.26 | 0.79 | 90 | 1002.8 |
| 20260508025406 | 62 | 16 | 12.0 | 30.0 | 0.10 | 2.26 | 0.79 | 90 | 1002.8 |
| 20260508024906 | 62 | 21 | 14.0 | 30.0 | 0.10 | 2.25 | 0.78 | 90 | 1003.0 |
| 20260508024406 | 62 | 22 | 10.0 | 20.0 | 0.09 | 2.24 | 0.76 | 90 | 1002.9 |
| 20260508023906 | 62 | 16 | 15.0 | 26.0 | 0.07 | 2.21 | 0.74 | 90 | 1003.2 |
| 20260508022906 | 62 | 16 | 10.0 | 22.0 | 0.05 | 2.19 | 0.72 | 89 | 1003.7 |
| 20260508021906 | 63 | 13 | 11.0 | 24.0 | 0.03 | 2.17 | 0.70 | 90 | 1004.1 |
| 20260508021406 | 63 | 18 | 13.0 | 30.0 | 0.02 | 2.17 | 0.69 | 89 | 1004.1 |
| 20260508020906 | 63 | 19 | 14.0 | 28.0 | 0.02 | 2.17 | 0.69 | 89 | 1004.4 |
| 20260508020407 | 63 | 16 | 13.0 | 33.0 | 0.02 | 2.17 | 0.69 | 89 | 1004.4 |
| 20260508015908 | 63 | 15 | 10.0 | 35.0 | 0.02 | 2.17 | 0.69 | 89 | 1004.5 |
| 20260508015407 | 63 | 14 | 13.0 | 35.0 | 0.02 | 2.16 | 0.69 | 89 | 1004.6 |
| 20260508014407 | 63 | 18 | 11.0 | 20.0 | 0.02 | 2.15 | 0.68 | 89 | 1005.0 |
| 20260508013908 | 63 | 23 | 7.0 | 36.0 | 0.01 | 2.14 | 0.67 | 89 | 1005.2 |
| 20260508013407 | 63 | 10 | 10.0 | 26.0 | 0.01 | 2.14 | 0.67 | 89 | 1005.3 |
| 20260508011907 | 63 | 14 | 12.0 | 23.0 | 0.01 | 2.14 | 0.67 | 89 | 1005.7 |
| 20260508011407 | 63 | 25 | 10.0 | 24.0 | 0.01 | 2.15 | 0.67 | 89 | 1005.8 |
| 20260508010908 | 63 | 4 | 10.0 | 25.0 | 0.01 | 2.16 | 0.67 | 89 | 1006.0 |
| 20260508010407 | 63 | 16 | 13.0 | 29.0 | 0.01 | 2.16 | 0.67 | 89 | 1006.2 |
| 20260508005906 | 63 | 13 | 12.0 | 26.0 | 0.01 | 2.16 | 0.67 | 89 | 1006.2 |
| 20260508005408 | 63 | 19 | 12.0 | 22.0 | 0.00 | 2.16 | 0.66 | 89 | 1006.4 |
| 20260508004907 | 63 | 19 | 10.0 | 18.0 | 0.00 | 2.16 | 0.66 | 89 | 1006.4 |
| 20260508004408 | 63 | 16 | 10.0 | 22.0 | 0.00 | 2.16 | 0.66 | 89 | 1006.6 |
| 20260508003907 | 63 | 24 | 13.0 | 33.0 | 0.00 | 2.16 | 0.66 | 89 | 1006.8 |
| 20260508003406 | 63 | 22 | 8.0 | 22.0 | 0.00 | 2.16 | 0.66 | 89 | 1007.0 |
| 20260508002406 | 63 | 15 | 14.0 | 26.0 | 0.00 | 2.16 | 0.66 | 90 | 1007.3 |
| 20260508001906 | 63 | 24 | 11.0 | 23.0 | 0.00 | 2.16 | 0.66 | 90 | 1007.4 |
| 20260508000906 | 63 | 18 | 10.0 | 30.0 | 0.00 | 2.16 | 0.66 | 90 | 1007.7 |
| 20260508000406 | 63 | 31 | 17.0 | 31.0 | 0.00 | 2.16 | 0.66 | 90 | 1007.9 |
| 20260507235906 | 63 | 11 | 8.0 | 18.0 | 0.00 | 2.16 | 0.66 | 90 | 1007.9 |
| 20260507234906 | 63 | 16 | 14.0 | 24.0 | 0.00 | 2.17 | 0.66 | 90 | 1008.0 |
| 20260507234406 | 63 | 18 | 12.0 | 24.0 | 0.01 | 2.18 | 0.66 | 90 | 1008.1 |
| 20260507233907 | 63 | 26 | 14.0 | 26.0 | 0.01 | 2.20 | 0.66 | 90 | 1008.2 |
| 20260507233406 | 63 | 8 | 17.0 | 35.0 | 0.01 | 2.20 | 0.66 | 90 | 1008.4 |
| 20260507232408 | 63 | 4 | 16.0 | 26.0 | 0.01 | 2.20 | 0.66 | 91 | 1008.4 |
| 20260507231406 | 63 | 4 | 16.0 | 26.0 | 0.01 | 2.20 | 0.66 | 91 | 1008.6 |
| 20260507230908 | 63 | 356 | 15.0 | 29.0 | 0.01 | 2.20 | 0.66 | 91 | 1008.8 |
| 20260507225906 | 63 | 13 | 17.0 | 25.0 | 0.01 | 2.20 | 0.66 | 91 | 1008.8 |
| 20260507225406 | 63 | 13 | 12.0 | 22.0 | 0.01 | 2.20 | 0.66 | 91 | 1008.7 |
| 20260507224908 | 63 | 15 | 10.0 | 21.0 | 0.01 | 2.20 | 0.66 | 91 | 1008.8 |
| 20260507224407 | 63 | 9 | 13.0 | 30.0 | 0.01 | 2.19 | 0.65 | 91 | 1008.9 |
| 20260507223408 | 63 | 14 | 16.0 | 31.0 | 0.02 | 2.19 | 0.65 | 91 | 1009.0 |
| 20260507222906 | 63 | 18 | 16.0 | 28.0 | 0.02 | 2.19 | 0.65 | 91 | 1009.1 |
| 20260507222406 | 63 | 0 | 17.0 | 30.0 | 0.02 | 2.19 | 0.65 | 91 | 1009.2 |
| 20260507221906 | 63 | 11 | 17.0 | 31.0 | 0.02 | 2.19 | 0.65 | 91 | 1009.2 |
| 20260507221406 | 63 | 20 | 20.0 | 30.0 | 0.02 | 2.19 | 0.65 | 91 | 1009.3 |
| 20260507220406 | 63 | 1 | 14.0 | 31.0 | 0.02 | 2.19 | 0.65 | 91 | 1009.4 |
| 20260507215906 | 63 | 11 | 16.0 | 29.0 | 0.02 | 2.19 | 0.65 | 91 | 1009.3 |
| 20260507214906 | 64 | 3 | 16.0 | 30.0 | 0.02 | 2.19 | 0.65 | 91 | 1009.4 |
| 20260507214406 | 64 | 12 | 20.0 | 36.0 | 0.01 | 2.18 | 0.65 | 92 | 1009.5 |
| 20260507213906 | 64 | 6 | 16.0 | 26.0 | 0.00 | 2.17 | 0.64 | 92 | 1009.7 |
| 20260507213406 | 64 | 24 | 17.0 | 28.0 | 0.00 | 2.17 | 0.64 | 92 | 1009.6 |
| 20260507212906 | 64 | 9 | 13.0 | 29.0 | 0.00 | 2.17 | 0.64 | 92 | 1009.6 |
| 20260507212406 | 64 | 17 | 16.0 | 29.0 | 0.00 | 2.17 | 0.64 | 92 | 1009.6 |
| 20260507211906 | 64 | 0 | 17.0 | 33.0 | 0.00 | 2.17 | 0.64 | 92 | 1009.7 |
| 20260507211406 | 64 | 8 | 13.0 | 25.0 | 0.00 | 2.17 | 0.64 | 92 | 1009.8 |
| 20260507210906 | 64 | 0 | 17.0 | 29.0 | 0.00 | 2.17 | 0.64 | 92 | 1009.8 |
| 20260507210406 | 64 | 357 | 11.0 | 23.0 | 0.00 | 2.17 | 0.64 | 92 | 1009.9 |
| 20260507205406 | 64 | 1 | 12.0 | 20.0 | 0.00 | 2.17 | 0.64 | 92 | 1010.0 |
| 20260507204906 | 64 | 19 | 11.0 | 29.0 | 0.00 | 2.17 | 0.64 | 92 | 1009.8 |
| 20260507204406 | 64 | 11 | 12.0 | 25.0 | 0.00 | 2.17 | 0.64 | 92 | 1009.8 |
| 20260507203906 | 64 | 8 | 7.0 | 25.0 | 0.00 | 2.17 | 0.64 | 92 | 1009.9 |
| 20260507203406 | 64 | 7 | 14.0 | 26.0 | 0.00 | 2.17 | 0.64 | 92 | 1009.8 |
| 20260507202407 | 64 | 346 | 7.0 | 17.0 | 0.00 | 2.17 | 0.64 | 92 | 1009.8 |
| 20260507201908 | 64 | 9 | 6.0 | 16.0 | 0.00 | 2.17 | 0.64 | 92 | 1009.7 |
| 20260507201406 | 64 | 11 | 8.0 | 21.0 | 0.00 | 2.17 | 0.64 | 92 | 1009.7 |
| 20260507200907 | 64 | 4 | 9.0 | 20.0 | 0.00 | 2.17 | 0.64 | 92 | 1009.7 |
| 20260507195407 | 64 | 358 | 7.0 | 21.0 | 0.01 | 2.17 | 0.64 | 92 | 1009.7 |
| 20260507194906 | 64 | 350 | 12.0 | 20.0 | 0.01 | 2.17 | 0.64 | 92 | 1009.7 |
| 20260507194407 | 64 | 0 | 6.0 | 15.0 | 0.03 | 2.17 | 0.64 | 92 | 1009.7 |
| 20260507193407 | 64 | 351 | 9.0 | 20.0 | 0.06 | 2.17 | 0.64 | 92 | 1009.6 |
| 20260507191406 | 64 | 8 | 6.0 | 18.0 | 0.09 | 2.17 | 0.64 | 92 | 1009.8 |
| 20260507190906 | 64 | 346 | 11.0 | 20.0 | 0.10 | 2.17 | 0.64 | 92 | 1009.8 |
| 20260507190406 | 64 | 339 | 12.0 | 18.0 | 0.10 | 2.17 | 0.64 | 92 | 1009.8 |
| 20260507185906 | 63 | 352 | 6.0 | 13.0 | 0.11 | 2.17 | 0.63 | 92 | 1009.7 |
| 20260507185406 | 63 | 341 | 7.0 | 17.0 | 0.13 | 2.17 | 0.63 | 92 | 1009.8 |
| 20260507184906 | 63 | 347 | 9.0 | 15.0 | 0.15 | 2.17 | 0.63 | 92 | 1009.9 |
| 20260507184406 | 63 | 346 | 8.0 | 18.0 | 0.15 | 2.14 | 0.61 | 92 | 1010.0 |
| 20260507183906 | 63 | 344 | 8.0 | 25.0 | 0.20 | 2.13 | 0.59 | 92 | 1010.2 |
| 20260507183407 | 63 | 351 | 9.0 | 20.0 | 0.26 | 2.11 | 0.57 | 92 | 1010.1 |
| 20260507182407 | 63 | 2 | 7.0 | 20.0 | 0.27 | 2.10 | 0.57 | 92 | 1010.2 |
| 20260507181907 | 63 | 340 | 9.0 | 17.0 | 0.27 | 2.09 | 0.56 | 92 | 1010.2 |
| 20260507181407 | 63 | 356 | 6.0 | 20.0 | 0.27 | 2.09 | 0.55 | 92 | 1010.3 |
| 20260507180908 | 63 | 353 | 10.0 | 17.0 | 0.25 | 2.07 | 0.54 | 92 | 1010.3 |
| 20260507180407 | 63 | 356 | 7.0 | 15.0 | 0.26 | 2.07 | 0.54 | 92 | 1010.4 |
| 20260507175907 | 63 | 12 | 9.0 | 21.0 | 0.26 | 2.06 | 0.52 | 92 | 1010.5 |
| 20260507175408 | 63 | 7 | 7.0 | 17.0 | 0.25 | 2.04 | 0.50 | 92 | 1010.4 |
| 20260507174906 | 64 | 3 | 10.0 | 20.0 | 0.24 | 2.02 | 0.48 | 92 | 1010.4 |
| 20260507174407 | 64 | 6 | 6.0 | 25.0 | 0.23 | 1.99 | 0.46 | 92 | 1010.5 |
| 20260507173907 | 64 | 354 | 5.0 | 15.0 | 0.18 | 1.93 | 0.39 | 92 | 1010.6 |
| 20260507173407 | 64 | 0 | 2.0 | 10.0 | 0.11 | 1.85 | 0.31 | 92 | 1010.5 |
| 20260507172907 | 64 | 0 | 7.0 | 16.0 | 0.11 | 1.84 | 0.31 | 92 | 1010.6 |
| 20260507171406 | 64 | 355 | 10.0 | 20.0 | 0.11 | 1.82 | 0.28 | 92 | 1010.9 |
| 20260507170407 | 64 | 354 | 8.0 | 20.0 | 0.10 | 1.81 | 0.28 | 92 | 1011.1 |
| 20260507165908 | 64 | 334 | 12.0 | 21.0 | 0.09 | 1.80 | 0.26 | 92 | 1011.1 |
| 20260507165406 | 64 | 343 | 6.0 | 17.0 | 0.09 | 1.79 | 0.25 | 92 | 1011.2 |
| 20260507164907 | 64 | 7 | 6.0 | 12.0 | 0.09 | 1.78 | 0.24 | 92 | 1011.2 |
| 20260507164408 | 64 | 341 | 10.0 | 20.0 | 0.07 | 1.76 | 0.23 | 92 | 1011.1 |
| 20260507163907 | 64 | 9 | 12.0 | 22.0 | 0.06 | 1.75 | 0.21 | 92 | 1011.1 |
| 20260507163407 | 64 | 9 | 7.0 | 22.0 | 0.05 | 1.74 | 0.20 | 92 | 1011.2 |
| 20260507162907 | 64 | 12 | 8.0 | 18.0 | 0.04 | 1.73 | 0.20 | 92 | 1011.1 |
| 20260507162406 | 64 | 6 | 10.0 | 22.0 | 0.03 | 1.72 | 0.19 | 92 | 1011.1 |
| 20260507161907 | 64 | 355 | 12.0 | 22.0 | 0.02 | 1.72 | 0.18 | 92 | 1011.1 |
| 20260507161407 | 64 | 340 | 11.0 | 20.0 | 0.02 | 1.71 | 0.17 | 92 | 1011.2 |
| 20260507160907 | 64 | 349 | 10.0 | 20.0 | 0.02 | 1.71 | 0.17 | 92 | 1011.2 |
| 20260507160406 | 64 | 350 | 9.0 | 18.0 | 0.02 | 1.71 | 0.17 | 92 | 1011.3 |
| 20260507155907 | 64 | 6 | 9.0 | 22.0 | 0.01 | 1.70 | 0.17 | 92 | 1011.4 |
| 20260507155406 | 64 | 352 | 9.0 | 21.0 | 0.01 | 1.70 | 0.17 | 92 | 1011.4 |
| 20260507154907 | 64 | 11 | 6.0 | 17.0 | 0.00 | 1.70 | 0.16 | 92 | 1011.4 |
| 20260507154407 | 64 | 351 | 7.0 | 16.0 | 0.00 | 1.70 | 0.16 | 92 | 1011.5 |
| 20260507153906 | 64 | 348 | 7.0 | 21.0 | 0.00 | 1.72 | 0.16 | 92 | 1011.5 |
| 20260507152908 | 64 | 353 | 7.0 | 23.0 | 0.00 | 1.73 | 0.16 | 92 | 1011.6 |
| 20260507152407 | 64 | 5 | 10.0 | 16.0 | 0.00 | 1.74 | 0.16 | 92 | 1011.7 |
| 20260507151907 | 64 | 0 | 12.0 | 25.0 | 0.00 | 1.76 | 0.16 | 92 | 1011.7 |
| 20260507150908 | 64 | 359 | 9.0 | 21.0 | 0.01 | 1.79 | 0.16 | 92 | 1011.9 |
| 20260507150407 | 64 | 23 | 8.0 | 20.0 | 0.01 | 1.79 | 0.16 | 92 | 1012.1 |
| 20260507145407 | 64 | 337 | 9.0 | 20.0 | 0.01 | 1.80 | 0.16 | 92 | 1012.3 |
| 20260507144907 | 64 | 1 | 7.0 | 16.0 | 0.01 | 1.80 | 0.16 | 92 | 1012.3 |
| 20260507144407 | 64 | 345 | 9.0 | 20.0 | 0.01 | 1.80 | 0.16 | 92 | 1012.5 |
| 20260507143907 | 64 | 11 | 8.0 | 22.0 | 0.02 | 1.80 | 0.16 | 92 | 1012.5 |
| 20260507143406 | 64 | 0 | 4.0 | 15.0 | 0.02 | 1.80 | 0.16 | 92 | 1012.5 |
| 20260507142906 | 64 | 353 | 8.0 | 20.0 | 0.04 | 1.80 | 0.16 | 92 | 1012.6 |
| 20260507142406 | 64 | 351 | 9.0 | 20.0 | 0.06 | 1.80 | 0.16 | 92 | 1012.7 |
| 20260507141906 | 64 | 20 | 7.0 | 20.0 | 0.06 | 1.80 | 0.16 | 92 | 1012.8 |
| 20260507141406 | 64 | 2 | 10.0 | 18.0 | 0.07 | 1.80 | 0.16 | 92 | 1012.8 |
| 20260507140906 | 64 | 12 | 9.0 | 16.0 | 0.07 | 1.79 | 0.15 | 92 | 1012.9 |
| 20260507140406 | 64 | 339 | 5.0 | 15.0 | 0.07 | 1.79 | 0.15 | 92 | 1012.9 |
| 20260507135907 | 64 | 0 | 6.0 | 18.0 | 0.08 | 1.79 | 0.15 | 92 | 1013.0 |
| 20260507135408 | 64 | 27 | 6.0 | 16.0 | 0.09 | 1.79 | 0.15 | 92 | 1013.1 |
| 20260507134907 | 64 | 348 | 8.0 | 20.0 | 0.10 | 1.79 | 0.15 | 92 | 1013.1 |
| 20260507134407 | 64 | 6 | 6.0 | 25.0 | 0.11 | 1.79 | 0.15 | 92 | 1013.1 |
| 20260507133906 | 64 | 0 | 7.0 | 16.0 | 0.11 | 1.78 | 0.14 | 92 | 1013.1 |
| 20260507132907 | 64 | 353 | 8.0 | 20.0 | 0.09 | 1.76 | 0.12 | 92 | 1013.4 |
| 20260507132407 | 64 | 0 | 5.0 | 20.0 | 0.09 | 1.74 | 0.10 | 92 | 1013.3 |
| 20260507131908 | 64 | 4 | 7.0 | 14.0 | 0.08 | 1.73 | 0.09 | 92 | 1013.4 |
| 20260507131406 | 64 | 339 | 9.0 | 18.0 | 0.08 | 1.72 | 0.09 | 92 | 1013.4 |
| 20260507130906 | 64 | 2 | 11.0 | 20.0 | 0.08 | 1.72 | 0.08 | 92 | 1013.5 |
| 20260507125906 | 64 | 345 | 9.0 | 20.0 | 0.89 | 1.71 | 0.07 | 92 | 1013.5 |
| 20260507125406 | 64 | 350 | 7.0 | 26.0 | 0.88 | 1.70 | 0.06 | 92 | 1013.6 |
| 20260507124906 | 64 | 9 | 9.0 | 26.0 | 0.87 | 1.69 | 0.05 | 92 | 1013.6 |
| 20260507123906 | 64 | 357 | 9.0 | 20.0 | 0.86 | 1.67 | 0.03 | 92 | 1013.7 |
| 20260507123406 | 64 | 351 | 10.0 | 20.0 | 0.87 | 1.67 | 0.03 | 92 | 1013.7 |
| 20260507121906 | 64 | 358 | 8.0 | 17.0 | 0.85 | 1.65 | 0.02 | 92 | 1013.7 |
| 20260507121406 | 64 | 359 | 9.0 | 22.0 | 0.84 | 1.65 | 0.01 | 92 | 1013.8 |
| 20260507120906 | 64 | 356 | 10.0 | 16.0 | 0.83 | 1.64 | 0.00 | 92 | 1013.9 |
| 20260507120406 | 64 | 7 | 11.0 | 26.0 | 0.83 | 1.64 | 0.00 | 92 | 1013.8 |
| 20260507115906 | 64 | 353 | 11.0 | 21.0 | 0.02 | 0.83 | 0.82 | 92 | 1013.9 |
| 20260507113906 | 64 | 358 | 11.0 | 25.0 | 0.05 | 0.82 | 0.81 | 92 | 1014.1 |
| 20260507113406 | 64 | 356 | 14.0 | 22.0 | 0.06 | 0.81 | 0.80 | 92 | 1014.1 |
| 20260507112906 | 64 | 5 | 14.0 | 26.0 | 0.06 | 0.81 | 0.80 | 92 | 1014.2 |
| 20260507111906 | 64 | 341 | 10.0 | 22.0 | 0.09 | 0.81 | 0.80 | 92 | 1014.3 |
| 20260507111406 | 64 | 330 | 12.0 | 22.0 | 0.09 | 0.81 | 0.80 | 92 | 1014.4 |
| 20260507110406 | 64 | 348 | 12.0 | 23.0 | 0.13 | 0.81 | 0.80 | 92 | 1014.5 |
| 20260507105906 | 64 | 343 | 12.0 | 25.0 | 0.13 | 0.81 | 0.80 | 92 | 1014.4 |
| 20260507104906 | 64 | 338 | 14.0 | 26.0 | 0.15 | 0.80 | 0.79 | 92 | 1014.4 |
| 20260507103906 | 63 | 355 | 7.0 | 20.0 | 0.15 | 0.77 | 0.76 | 91 | 1014.3 |
| 20260507103406 | 63 | 2 | 6.0 | 17.0 | 0.14 | 0.75 | 0.74 | 91 | 1014.4 |
| 20260507102906 | 63 | 6 | 7.0 | 16.0 | 0.15 | 0.75 | 0.74 | 91 | 1014.5 |